Location: Black River Observatory
(43.1000°N, 82.6200°W)
Time: 01:29:13
(UTC-04:00)

Daily predictions for brighter satellites

Satellite Brightness Start Highest point End
(mag) Time Altitude Azimuth Time Altitude Azimuth Time Altitude Azimuth
ATLAS 3B R/B 4.4 01:26:04 28° NNE 01:26:04 28° NNE 01:29:09 10° NNE
Cosmos 1980 Rocket 4.5 02:48:30 20° NE 02:48:30 20° NE 02:50:08 10° NNE
CENTAUR R/B 4.2 02:56:30 29° NE 02:56:30 29° NE 02:59:51 10° NE
Cosmos 2263 Rocket 4.4 02:53:52 10° N 02:56:25 20° NNE 02:56:25 20° NNE
SL-16 R/B 3.5 03:33:25 41° NNE 03:33:25 41° NNE 03:37:31 10° N
ARIANE 5 R/B 4.4 03:31:31 10° NNE 03:34:01 26° NE 03:34:01 26° NE
Cosmos 2322 Rocket 3.2 03:58:56 42° NNE 03:58:56 42° NNE 04:02:35 10° NNE
SL-16 R/B 3.1 04:04:10 45° NNE 04:04:10 45° NNE 04:08:03 10° NNE
Resurs 1-4 Rocket 3.1 04:04:48 10° NNE 04:08:11 41° NNE 04:08:11 41° NNE
CZ-2D R/B 3.0 04:06:56 10° NNE 04:10:47 47° NNE 04:10:47 47° NNE
Okean O Rocket 4.2 04:12:33 10° NE 04:15:13 15° E 04:16:32 14° ESE
FALCON 9 R/B 4.3 04:17:39 52° SW 04:20:21 58° S 04:58:43 10° ESE
Cosmos 2360 Rocket 2.5 04:27:51 59° E 04:27:51 59° E 04:33:14 10° NNE
Cosmos 1980 Rocket 3.9 04:30:15 22° NNW 04:30:15 22° NNW 04:33:29 10° N
ADEOS II 4.1 04:29:39 10° NE 04:33:51 23° E 04:37:45 11° SE
ADEOS Rocket 2.9 04:32:26 10° N 04:37:12 62° NNW 04:37:12 62° NNW
Cosmos 2263 Rocket 4.3 04:37:13 10° NNW 04:38:04 14° NW 04:38:04 14° NW
Cosmos 1340 4.3 04:44:18 33° ENE 04:44:18 33° ENE 04:46:56 10° NNE
ATLAS 5 CENTAUR R/B 4.3 04:39:05 10° NNW 04:43:57 26° NE 04:49:10 10° E
CENTAUR R/B 3.4 04:43:40 35° NW 04:44:15 36° NW 04:50:42 10° NNE
SL-08 ROCKET BODY 4.2 04:42:53 10° N 04:48:47 85° W 04:49:21 74° S
USA 215 3.5 04:43:02 10° ESE 04:49:31 68° NE 04:56:02 10° NW
CZ-2D R/B 4.4 04:48:11 10° N 04:51:22 46° N 04:51:22 46° N
Cosmos 1536 Rocket 4.4 04:53:02 42° SE 04:53:48 47° E 04:58:06 10° NNE
COBE Rocket 4.2 04:52:03 10° N 04:56:32 57° NW 04:56:32 57° NW
Cosmos 2333 Rocket 4.4 04:55:02 10° SSE 04:59:17 22° E 05:03:34 10° NE
Spot 3 4.5 04:57:35 10° NNE 05:02:57 86° WNW 05:03:47 65° SSW
Cosmos 2322 3.6 05:04:46 64° SW 05:05:41 81° WNW 05:11:27 10° NNE
CZ-4B R/B 3.5 05:04:11 10° NNE 05:07:41 44° E 05:08:01 43° ESE
Cosmos 2327 Rocket 4.3 05:04:11 10° NNW 05:10:28 74° W 05:13:53 28° S
Meteor 1-18 Rocket 4.1 05:12:25 56° SW 05:13:27 70° W 05:19:04 10° N
ARIANE 5 R/B 3.9 05:11:09 10° N 05:14:22 24° NW 05:14:22 24° NW
SL-16 R/B 4.2 05:18:29 16° NW 05:18:29 16° NW 05:20:14 10° NW
Cosmos 1610 Rocket 4.4 05:11:01 10° N 05:17:19 87° W 05:23:39 10° S
EO 1 Del DPAF 3.9 05:13:49 10° SSE 05:17:35 56° ENE 05:21:23 10° N
Meteor 1-12 Rocket 4.1 05:12:49 10° NNW 05:18:27 70° W 05:22:22 21° S
Nadezhda 1 Rocket 3.8 05:16:39 32° SSW 05:19:42 82° W 05:25:48 10° N
Meteor 2-13 Rocket 4.3 05:14:58 10° NNW 05:21:08 73° W 05:27:12 10° S
Cosmos 1844 4.4 05:18:48 10° NNW 05:24:31 57° ENE 05:30:07 10° SE
Cosmos 2333 4.4 05:21:51 27° S 05:24:58 69° ESE 05:30:39 10° NNE
Cosmos 1570 Rocket 3.9 05:24:16 38° SSW 05:26:19 90° WNW 05:31:35 10° NNE
Meteor 1-13 Rocket 4.5 05:23:37 12° S 05:28:42 68° E 05:34:17 10° NNE
Okean 1 3.8 05:31:57 43° WNW 05:31:57 43° WNW 05:35:27 10° N
BREEZE M DEB (TANK) 4.1 05:16:17 10° WNW 05:31:40 68° NNE 05:35:57 10° E
CZ-4B DEB 4.3 05:27:00 10° NNE 05:32:36 76° ESE 05:37:41 13° S
MOS 1 Rocket 3.4 05:28:15 10° N 05:32:52 52° WNW 05:33:36 47° WSW
CZ-4B R/B 3.4 05:27:31 10° NNE 05:33:11 77° ESE 05:38:17 12° S
Cosmos 2074 Rocket 4.2 05:27:26 10° NNW 05:33:19 45° W 05:35:49 30° SW
Tiangong 2 2.4 05:34:36 31° SSE 05:34:36 31° SSE 05:36:34 10° SE
Cosmos 2341 Rocket 4.1 05:33:06 10° N 05:39:23 79° E 05:45:35 10° S
Cosmos 2322 Rocket 3.8 05:40:45 17° WNW 05:41:44 18° NW 05:45:26 10° N
IRS-1C Rocket 4.0 05:36:52 10° NNE 05:42:10 84° WNW 05:46:22 16° SSW
Cosmos 1238 Rocket 1.9 05:42:00 71° S 05:42:16 87° ESE 05:45:16 10° N
ERS-2 3.6 05:40:21 10° NNE 05:43:49 37° E 05:47:16 10° SSE
Cosmos 1975 4.0 05:40:29 10° NNW 05:42:59 28° WNW 05:42:59 28° WNW
IRAS Rocket 4.2 05:40:53 10° NNE 05:46:27 87° ESE 05:52:02 10° SSW
SL-16 R/B 3.9 05:46:02 16° WNW 05:47:16 17° NW 05:50:53 10° N
Resurs 1-4 Rocket 3.9 05:46:38 10° NNW 05:49:11 14° WNW 05:49:17 14° WNW
Cosmos 2237 4.4 05:48:29 28° WSW 05:51:16 53° WNW 05:56:54 10° NNE
CZ-2D R/B 4.0 05:48:56 10° NNW 05:51:44 14° WNW 05:52:08 14° WNW
Okean O Rocket 1.8 05:47:32 10° N 05:51:53 52° WNW 05:54:02 27° SW
SL-8 R/B 4.1 05:48:52 18° WNW 05:52:16 59° NNE 05:56:59 10° E
CZ-2C R/B 3.6 05:47:47 10° S 05:52:20 69° WSW 05:56:52 10° NNW
PSLV R/B 4.3 05:49:03 10° N 05:52:30 35° WNW 05:52:53 34° W
Cosmos 2219 Rocket 2.3 05:48:29 12° SSW 05:53:36 77° ESE 05:59:12 10° NNE
COSMOS 2428 2.8 05:51:57 24° SW 05:55:21 62° WNW 06:01:01 10° NNE
Cosmos 1937 Rocket 4.2 05:51:44 10° NNW 05:57:00 58° ENE 06:02:13 10° SE
Meteor 2-9 Rocket 4.4 05:52:10 10° N 05:57:53 76° E 06:03:23 10° SSE
Cosmos 1025 Rocket 3.5 05:54:26 10° S 05:58:44 63° E 06:03:07 10° NNE
Cosmos 1844 Rocket 2.6 05:54:33 10° NNW 06:00:02 59° WSW 06:05:29 10° S
Lacrosse 4 Rocket 3.4 06:03:25 14° SSW 06:03:25 14° SSW 06:04:11 10° SSW
NOSS 0 Rocket 4.4 05:54:51 10° S 06:00:54 63° ESE 06:07:00 10° NNE
Cosmos 1437 4.3 06:00:35 10° SSE 06:03:40 38° E 06:06:44 10° NNE
Cosmos 1455 Rocket 4.4 06:01:07 10° NW 06:03:47 20° WNW 06:03:47 20° WNW
Okean-O 3.2 06:01:14 10° NNE 06:05:39 61° ESE 06:10:02 10° S
DELTA 2 R/B (1) 3.8 06:02:43 23° WSW 06:06:05 59° S 06:11:32 10° E
Cosmos 2360 Rocket 3.5 06:09:38 18° W 06:12:06 24° NW 06:16:36 10° N
USA 116 4.0 06:08:33 10° S 06:12:48 82° WSW 06:17:39 10° NNW
Cosmos 2285 Rocket 4.1 06:06:39 10° SSW 06:13:05 88° ESE 06:19:35 10° NNE
ADEOS II 2.4 06:08:45 10° N 06:13:46 46° WNW 06:18:43 10° SW
Cosmos 2278 Rocket 2.3 06:09:58 10° NNW 06:15:41 81° ENE 06:21:21 10° SSE
Cosmos 2298 Rocket 4.0 06:11:06 10° NNW 06:16:27 80° WSW 06:21:46 10° SSE
Meteor 1-19 Rocket 4.4 06:11:59 10° SSW 06:17:29 54° WNW 06:23:07 10° N
Cosmos 1814 Rocket 4.1 06:14:47 10° SSW 06:19:58 79° ESE 06:25:09 10° NNE
Cosmos 2237 Rocket 2.4 06:15:52 10° SSW 06:21:32 76° ESE 06:27:14 10° NNE
Cosmos 1295 Rocket 4.5 06:15:45 10° NNW 06:21:53 62° W 06:27:55 10° S
Meteor 2-19 Rocket 4.5 06:18:43 10° NNW 06:24:40 56° W 06:30:33 10° S
Aureole 2 Rocket 2.4 06:21:25 10° SSW 06:25:03 84° ESE 06:28:25 10° NNE
Meteor 1-15 Rocket 4.3 06:20:08 10° N 06:26:05 87° W 06:32:01 10° S
Meteor 2-4 Rocket 3.7 06:22:26 10° SSW 06:27:56 60° WNW 06:33:20 10° N
Cosmos 1666 3.3 06:25:05 10° NNW 06:28:38 35° W 06:32:11 10° SSW
Cosmos 405 Rocket 2.7 06:24:56 10° SSW 06:28:59 79° W 06:33:01 10° N
Cosmos 371 Rocket 4.3 06:24:26 10° S 06:29:06 49° ESE 06:33:49 10° NNE
ATLAS 5 CENTAUR R/B 2.4 06:23:15 10° NW 06:29:16 78° SW 06:35:47 10° SSE
Okean 2 3.3 06:28:34 10° SSW 06:32:42 76° W 06:36:55 10° N
Cosmos 332 Rocket 4.1 06:27:53 10° S 06:32:45 71° ESE 06:37:38 10° NNE
USA 215 3.7 06:26:45 10° SSE 06:32:46 38° SW 06:38:48 10° WNW
Cosmos 2366 rocket 4.1 06:27:20 10° N 06:33:43 88° W 06:40:05 10° S
Cosmos 1743 4.2 06:33:17 10° NW 06:35:56 18° W 06:38:34 10° SW
CZ-3A R/B -0.8 06:35:50 24° WSW 06:36:25 55° NW 06:38:27 10° NE
CZ-4B R/B 4.3 06:38:38 10° N 06:43:02 52° WNW 06:47:22 10° SSW
Cosmos 2333 Rocket 2.4 06:37:29 10° SW 06:43:05 56° WNW 06:48:44 10° NNE
Cosmos 2058 Rocket 3.2 06:39:24 10° N 06:43:55 86° E 06:48:21 10° S
Cosmos 1867 3.7 06:39:06 10° NW 06:44:23 52° WSW 06:49:37 10° SSE
SKYMED 2 3.6 06:40:18 10° SSE 06:44:39 87° ENE 06:49:01 10° NNW
Meteor 1-31 Rocket 3.2 06:41:45 10° N 06:45:21 40° WNW 06:48:56 10° SW
USA 229 DEB 3.9 06:39:12 10° SW 06:45:57 60° NW 06:52:52 10° NNE
USA 229 3.9 06:39:18 10° SW 06:46:03 60° NW 06:52:58 10° NNE
Feng Yun 1-1 Rocket 4.4 06:42:13 10° N 06:48:00 61° WNW 06:53:37 10° SSW
